TimePDT,TemperatureF,Dew PointF,Humidity,Sea Level PressureIn,VisibilityMPH,Wind Direction,Wind SpeedMPH,Gust SpeedMPH,PrecipitationIn,Events,Conditions,WindDirDegrees,DateUTC
12:53 AM,54.0,50.0,86,29.94,10.0,WNW,6.9,-,N/A,,Clear,300,2013-06-06 07:53:00
1:53 AM,54.0,50.0,86,29.92,10.0,NW,8.1,-,N/A,,Clear,310,2013-06-06 08:53:00
2:53 AM,54.0,50.0,86,29.92,10.0,WNW,6.9,-,N/A,,Partly Cloudy,300,2013-06-06 09:53:00
3:29 AM,53.6,51.8,94,29.93,10.0,WNW,8.1,-,N/A,,Mostly Cloudy,300,2013-06-06 10:29:00
3:53 AM,54.0,51.1,90,29.92,10.0,WNW,8.1,-,N/A,,Overcast,300,2013-06-06 10:53:00
4:13 AM,53.6,51.8,94,29.92,10.0,NW,8.1,-,N/A,,Overcast,310,2013-06-06 11:13:00
4:53 AM,55.0,51.1,86,29.93,10.0,WNW,10.4,-,N/A,,Overcast,290,2013-06-06 11:53:00
5:53 AM,55.0,51.1,86,29.93,10.0,WNW,9.2,-,N/A,,Overcast,290,2013-06-06 12:53:00
6:53 AM,54.0,51.1,90,29.94,10.0,NW,9.2,-,N/A,,Overcast,310,2013-06-06 13:53:00
7:53 AM,55.9,51.1,84,29.94,10.0,Variable,3.5,-,N/A,,Overcast,0,2013-06-06 14:53:00
8:45 AM,57.2,51.8,82,29.95,10.0,WNW,5.8,-,N/A,,Overcast,290,2013-06-06 15:45:00
8:53 AM,59.0,51.1,75,29.95,10.0,West,5.8,-,N/A,,Mostly Cloudy,280,2013-06-06 15:53:00
9:23 AM,60.8,51.8,72,29.95,10.0,WNW,5.8,-,N/A,,Scattered Clouds,300,2013-06-06 16:23:00
9:53 AM,62.1,52.0,70,29.94,10.0,WNW,3.5,-,N/A,,Clear,300,2013-06-06 16:53:00
10:53 AM,66.9,52.0,59,29.92,10.0,NW,6.9,-,N/A,,Clear,320,2013-06-06 17:53:00
11:53 AM,72.0,52.0,49,29.91,10.0,Variable,4.6,-,N/A,,Clear,0,2013-06-06 18:53:00
12:53 PM,77.0,53.1,43,29.89,10.0,NW,6.9,-,N/A,,Clear,320,2013-06-06 19:53:00
1:53 PM,81.0,53.1,38,29.87,10.0,West,9.2,-,N/A,,Clear,280,2013-06-06 20:53:00
2:53 PM,84.9,53.1,33,29.85,10.0,West,10.4,-,N/A,,Clear,270,2013-06-06 21:53:00
3:53 PM,86.0,53.1,32,29.83,10.0,WNW,11.5,-,N/A,,Clear,290,2013-06-06 22:53:00
4:53 PM,82.9,53.1,36,29.82,10.0,WNW,15.0,-,N/A,,Clear,290,2013-06-06 23:53:00
5:53 PM,81.0,54.0,39,29.82,10.0,WNW,15.0,-,N/A,,Partly Cloudy,290,2013-06-07 00:53:00
6:53 PM,77.0,53.1,43,29.83,10.0,WNW,12.7,-,N/A,,Partly Cloudy,290,2013-06-07 01:53:00
7:53 PM,72.0,53.1,51,29.83,10.0,WNW,10.4,-,N/A,,Clear,300,2013-06-07 02:53:00
8:53 PM,66.9,52.0,59,29.85,10.0,WNW,9.2,-,N/A,,Clear,300,2013-06-07 03:53:00
9:53 PM,63.0,52.0,67,29.86,10.0,WNW,11.5,-,N/A,,Clear,300,2013-06-07 04:53:00
10:53 PM,60.1,52.0,75,29.87,10.0,WNW,10.4,-,N/A,,Clear,300,2013-06-07 05:53:00
11:53 PM,57.9,51.1,78,29.87,10.0,WNW,8.1,-,N/A,,Clear,300,2013-06-07 06:53:00